Location: Ermatingen
(47.6706°N, 9.0857°E)
Time: 03:12:10
(UTC+00:00)

Meteor 1-24 Rocket - Pass Details

Date: 18 September 2020
Orbit: 790 x 927 km, 81.2° (Epoch: 24 October)

Event Time Altitude Azimuth Distance (km) Brightness Sun altitude
Rises 19:05:37 0° 355° (N) 3,343 7.2 -16.7°
Reaches altitude 10° 19:08:15 10° 6° (N) 2,424 6.3 -17.1°
Maximum altitude 19:13:08 32° 69° (ENE) 1,401 4.5 -17.9°
Enters shadow 19:14:23 29° 94° (E) 1,496 4.5 -18.0°
